TimeCST,TemperatureF,Dew PointF,Humidity,Sea Level PressureIn,VisibilityMPH,Wind Direction,Wind SpeedMPH,Gust SpeedMPH,PrecipitationIn,Events,Conditions,WindDirDegrees,DateUTC
12:56 AM,37.9,33.1,83,29.83,-9999.0,NNW,8.1,-,N/A,,Unknown,330,2012-12-17 06:56:00
1:56 AM,37.9,33.1,83,29.81,-9999.0,NW,5.8,-,N/A,,Unknown,310,2012-12-17 07:56:00
2:56 AM,37.9,34.0,86,29.83,-9999.0,WNW,6.9,-,N/A,,Unknown,300,2012-12-17 08:56:00
3:56 AM,37.0,32.0,82,29.81,-9999.0,NW,5.8,-,N/A,,Unknown,320,2012-12-17 09:56:00
4:56 AM,34.0,30.9,89,29.82,-9999.0,NNW,4.6,-,N/A,,Unknown,340,2012-12-17 10:56:00
5:56 AM,33.1,30.0,89,29.83,-9999.0,NW,5.8,-,N/A,,Unknown,320,2012-12-17 11:56:00
6:56 AM,30.9,28.9,92,29.85,-9999.0,NNW,4.6,-,N/A,,Unknown,330,2012-12-17 12:56:00
7:56 AM,30.0,28.0,92,29.85,-9999.0,North,4.6,-,N/A,,Unknown,360,2012-12-17 13:56:00
8:56 AM,34.0,30.9,89,29.85,-9999.0,NNW,3.5,-,N/A,,Unknown,340,2012-12-17 14:56:00
9:56 AM,39.9,32.0,73,29.86,-9999.0,NW,8.1,-,N/A,,Unknown,310,2012-12-17 15:56:00
10:56 AM,46.0,32.0,58,29.85,-9999.0,WNW,9.2,-,N/A,,Unknown,290,2012-12-17 16:56:00
11:56 AM,53.1,30.9,43,29.81,-9999.0,West,6.9,-,N/A,,Unknown,270,2012-12-17 17:56:00
12:56 PM,54.0,28.9,38,29.76,-9999.0,WSW,9.2,-,N/A,,Unknown,240,2012-12-17 18:56:00
1:56 PM,55.0,28.0,35,29.73,-9999.0,SW,10.4,-,N/A,,Unknown,230,2012-12-17 19:56:00
2:56 PM,55.9,24.1,29,29.72,-9999.0,SW,9.2,-,N/A,,Unknown,230,2012-12-17 20:56:00
3:56 PM,55.0,27.0,34,29.70,-9999.0,SW,11.5,-,N/A,,Unknown,220,2012-12-17 21:56:00
6:56 PM,46.0,30.0,54,29.71,-9999.0,South,9.2,-,N/A,,Unknown,190,2012-12-18 00:56:00
7:56 PM,44.1,30.9,60,29.72,-9999.0,South,9.2,-,N/A,,Unknown,180,2012-12-18 01:56:00
8:56 PM,41.0,30.9,67,29.70,-9999.0,South,9.2,-,N/A,,Unknown,170,2012-12-18 02:56:00
9:56 PM,39.9,30.9,70,29.68,-9999.0,South,9.2,-,N/A,,Unknown,170,2012-12-18 03:56:00
10:56 PM,37.9,30.0,73,29.68,-9999.0,SSE,3.5,-,N/A,,Unknown,160,2012-12-18 04:56:00
11:56 PM,37.0,28.9,73,29.67,-9999.0,SSE,6.9,-,N/A,,Unknown,150,2012-12-18 05:56:00